Location: Chassagnes
(44.4047°N, 4.1657°E)
Time: 12:03:43
(UTC+00:00)

Cosmos 1656 - Pass Details

Date: 27 October 2020
Orbit: 796 x 851 km, 71.1° (Epoch: 23 November)

Event Time Altitude Azimuth Distance (km) Brightness Sun altitude
Rises 17:13:02 0° 176° (S) 3,327 6.9 -6.6°
Reaches altitude 10° 17:15:37 10° 168° (SSE) 2,409 6.1 -7.1°
Maximum altitude 17:20:32 34° 105° (ESE) 1,342 4.3 -8.0°
Drops below altitude 10° 17:25:32 10° 42° (NE) 2,457 5.7 -8.8°
Sets 17:28:11 0° 33° (NNE) 3,404 6.4 -9.3°
